sat.trackr.live / text

‹ back to catalog

STARLINK-11406 [DTC]

NORAD 63057 · 2025-035F

PAYLOAD ACTIVE UNKNOWN

§ Identity

Operator
Country
US
Launch date
2025-02-21
Launch site
AFETR
Launch vehicle
Mass (kg)
RCS (m²)

Purposes: comms

External: N2YO · Heavens-Above · Gunter

§ Orbital elements

Epoch: 2026-09-21T11:24:28.766016Z

Period
91.67 min
Inclination
43.0008°
Eccentricity
0.0001970
Mean motion
15.70884600 rev/d
Perigee alt
355.0 km
Apogee alt
357.7 km
Semi-major
6,734.5 km
B*
1.0061e-3
RAAN
275.1426°
Arg perigee
279.4869°
Mean anomaly
80.5776°
Rev number
9,189

§ Raw data

STARLINK-11406 [DTC]1 63057U 25035F   26264.47533294  .00130953  00000+0  10061-2 0  99932 63057  43.0008 275.1426 0001970 279.4869  80.5776 15.70884600 91896

JSON: /api/v1/satellites/63057 · /tle

For live sub-satellite position, see the globe view (requires WebGL).

§ Visibility from observer

Set your observer location to see the next 7 days of passes ≥ 10°. The values pass through the URL so the page stays shareable.

No JS? Fill the form by hand. The geolocation button needs JavaScript.